Precipitable_Water
1.31 1.25 1.18 1.13 1.06 0.95 0.81 0.66 0.58 0.50 0.46 0.47 0.46 0.46 0.46 0.50 0.52 0.52 0.51 0.52 0.54 0.54 0.55 0.56 0.57 0.56 0.57 0.57 0.57 0.55 0.53 0.52 0.52 0.52 0.51 0.50 0.49 0.48 0.46 0.45 0.46 0.47
1.30 1.24 1.17 1.11 1.02 0.89 0.75 0.65 0.55 0.48 0.46 0.47 0.48 0.49 0.52 0.52 0.51 0.53 0.54 0.54 0.55 0.56 0.58 0.58 0.58 0.58 0.57 0.57 0.57 0.55 0.53 0.52 0.50 0.53 0.50 0.49 0.49 0.50 0.49 0.50 0.49 0.50
1.29 1.20 1.12 1.02 0.92 0.80 0.71 0.62 0.52 0.48 0.47 0.48 0.50 0.52 0.53 0.55 0.54 0.57 0.57 0.55 0.55 0.57 0.58 0.60 0.60 0.59 0.58 0.57 0.56 0.54 0.52 0.51 0.49 0.50 0.50 0.49 0.50 0.49 0.50 0.51 0.50 0.50
1.24 1.15 1.05 0.97 0.87 0.77 0.69 0.57 0.50 0.48 0.48 0.48 0.50 0.53 0.54 0.55 0.56 0.56 0.57 0.58 0.57 0.58 0.59 0.60 0.60 0.59 0.57 0.55 0.54 0.52 0.52 0.52 0.52 0.51 0.50 0.50 0.51 0.51 0.50 0.51 0.51 0.50
1.21 1.11 1.02 0.91 0.85 0.77 0.65 0.52 0.47 0.46 0.46 0.48 0.52 0.54 0.55 0.55 0.55 0.56 0.57 0.57 0.58 0.58 0.59 0.59 0.59 0.57 0.56 0.54 0.52 0.50 0.51 0.51 0.51 0.50 0.49 0.48 0.50 0.51 0.51 0.52 0.50 0.48
1.17 1.06 0.95 0.88 0.83 0.72 0.58 0.49 0.46 0.46 0.47 0.48 0.51 0.55 0.55 0.56 0.56 0.56 0.56 0.56 0.58 0.58 0.58 0.58 0.57 0.56 0.56 0.54 0.52 0.51 0.50 0.47 0.47 0.47 0.47 0.46 0.48 0.51 0.51 0.51 0.50 0.47
1.05 0.96 0.89 0.86 0.78 0.65 0.54 0.49 0.47 0.49 0.50 0.53 0.56 0.56 0.57 0.56 0.57 0.57 0.56 0.56 0.57 0.57 0.57 0.57 0.57 0.56 0.56 0.55 0.52 0.50 0.48 0.45 0.46 0.47 0.45 0.45 0.47 0.48 0.49 0.49 0.48 0.45
0.96 0.90 0.86 0.80 0.69 0.59 0.52 0.49 0.48 0.50 0.54 0.56 0.55 0.55 0.56 0.56 0.58 0.60 0.60 0.59 0.57 0.56 0.57 0.57 0.58 0.57 0.57 0.56 0.53 0.52 0.50 0.48 0.47 0.47 0.45 0.44 0.45 0.46 0.49 0.48 0.49 0.44
0.90 0.85 0.81 0.72 0.62 0.55 0.50 0.48 0.49 0.51 0.55 0.56 0.56 0.56 0.58 0.58 0.59 0.61 0.62 0.65 0.63 0.60 0.58 0.57 0.57 0.57 0.58 0.57 0.56 0.55 0.52 0.51 0.49 0.48 0.46 0.46 0.47 0.49 0.50 0.51 0.49 0.47
0.86 0.82 0.76 0.67 0.58 0.52 0.49 0.49 0.50 0.53 0.56 0.57 0.58 0.58 0.57 0.60 0.62 0.63 0.66 0.69 0.67 0.64 0.61 0.59 0.58 0.57 0.57 0.58 0.58 0.58 0.56 0.53 0.51 0.49 0.48 0.49 0.51 0.52 0.53 0.53 0.50 0.48
0.81 0.76 0.68 0.60 0.53 0.51 0.49 0.50 0.51 0.54 0.57 0.57 0.58 0.58 0.60 0.61 0.62 0.66 0.68 0.69 0.69 0.67 0.66 0.63 0.62 0.60 0.58 0.58 0.59 0.61 0.60 0.57 0.55 0.51 0.49 0.50 0.52 0.55 0.57 0.56 0.55 0.52
0.69 0.65 0.59 0.54 0.51 0.50 0.50 0.51 0.53 0.54 0.56 0.57 0.58 0.58 0.60 0.62 0.63 0.66 0.69 0.70 0.71 0.70 0.69 0.68 0.67 0.65 0.62 0.60 0.59 0.60 0.61 0.61 0.59 0.56 0.52 0.52 0.54 0.56 0.57 0.59 0.58 0.57
0.62 0.57 0.54 0.51 0.50 0.50 0.52 0.54 0.56 0.57 0.58 0.57 0.59 0.59 0.60 0.63 0.67 0.68 0.71 0.72 0.72 0.73 0.72 0.71 0.70 0.69 0.66 0.64 0.62 0.60 0.61 0.62 0.62 0.61 0.59 0.57 0.57 0.58 0.59 0.61 0.62 0.59
0.59 0.55 0.51 0.51 0.51 0.52 0.53 0.55 0.58 0.60 0.60 0.61 0.62 0.61 0.62 0.66 0.68 0.70 0.72 0.74 0.74 0.74 0.75 0.76 0.74 0.72 0.70 0.68 0.66 0.65 0.63 0.62 0.64 0.64 0.63 0.61 0.60 0.61 0.62 0.63 0.64 0.61
0.59 0.53 0.52 0.52 0.52 0.52 0.53 0.56 0.59 0.62 0.64 0.63 0.63 0.64 0.67 0.69 0.71 0.73 0.73 0.74 0.75 0.77 0.77 0.79 0.77 0.74 0.74 0.74 0.72 0.68 0.68 0.66 0.66 0.67 0.67 0.65 0.63 0.61 0.62 0.64 0.65 0.63
0.56 0.52 0.51 0.51 0.51 0.52 0.53 0.57 0.59 0.62 0.63 0.62 0.63 0.65 0.67 0.70 0.73 0.74 0.75 0.75 0.76 0.78 0.79 0.80 0.79 0.79 0.78 0.81 0.82 0.76 0.71 0.69 0.68 0.69 0.70 0.69 0.65 0.62 0.61 0.63 0.64 0.62
0.55 0.51 0.50 0.47 0.49 0.51 0.53 0.56 0.57 0.59 0.62 0.63 0.65 0.67 0.69 0.71 0.75 0.76 0.78 0.80 0.80 0.79 0.79 0.81 0.82 0.84 0.83 0.84 0.81 0.81 0.78 0.74 0.69 0.68 0.69 0.68 0.66 0.62 0.59 0.60 0.61 0.61
0.58 0.54 0.50 0.48 0.49 0.50 0.51 0.54 0.56 0.58 0.60 0.63 0.65 0.67 0.72 0.76 0.76 0.77 0.78 0.80 0.81 0.81 0.81 0.82 0.84 0.87 0.87 0.85 0.83 0.83 0.84 0.81 0.75 0.69 0.68 0.67 0.66 0.64 0.61 0.60 0.59 0.58
0.61 0.56 0.51 0.49 0.48 0.50 0.50 0.52 0.54 0.57 0.60 0.62 0.63 0.69 0.74 0.75 0.76 0.77 0.78 0.80 0.80 0.80 0.81 0.83 0.85 0.88 0.88 0.87 0.87 0.85 0.85 0.84 0.79 0.73 0.67 0.66 0.66 0.65 0.62 0.60 0.59 0.58
0.64 0.58 0.53 0.51 0.50 0.49 0.49 0.51 0.54 0.56 0.60 0.64 0.66 0.69 0.72 0.74 0.76 0.76 0.77 0.79 0.81 0.82 0.83 0.85 0.86 0.89 0.89 0.89 0.89 0.87 0.85 0.85 0.81 0.73 0.68 0.66 0.66 0.65 0.62 0.60 0.58 0.58
0.64 0.60 0.55 0.52 0.50 0.50 0.50 0.52 0.54 0.58 0.61 0.63 0.66 0.70 0.72 0.73 0.74 0.75 0.78 0.82 0.84 0.86 0.84 0.84 0.87 0.90 0.91 0.91 0.91 0.88 0.85 0.83 0.80 0.74 0.68 0.66 0.66 0.65 0.63 0.60 0.60 0.61
0.63 0.60 0.57 0.53 0.49 0.49 0.50 0.51 0.54 0.58 0.59 0.63 0.68 0.72 0.76 0.76 0.77 0.78 0.79 0.81 0.84 0.86 0.84 0.83 0.87 0.90 0.90 0.91 0.90 0.88 0.86 0.83 0.79 0.72 0.66 0.63 0.63 0.63 0.62 0.62 0.63 0.64
0.65 0.60 0.58 0.55 0.49 0.47 0.49 0.51 0.54 0.58 0.60 0.67 0.68 0.72 0.73 0.74 0.74 0.76 0.80 0.81 0.83 0.85 0.84 0.84 0.86 0.89 0.90 0.89 0.87 0.86 0.84 0.81 0.76 0.70 0.65 0.61 0.61 0.62 0.63 0.64 0.66 0.68
0.66 0.61 0.58 0.55 0.50 0.46 0.48 0.52 0.57 0.60 0.64 0.70 0.68 0.70 0.70 0.73 0.75 0.75 0.78 0.82 0.84 0.85 0.86 0.83 0.85 0.89 0.89 0.87 0.85 0.84 0.82 0.78 0.73 0.66 0.62 0.60 0.60 0.62 0.65 0.66 0.68 0.71
0.68 0.63 0.60 0.55 0.50 0.49 0.52 0.54 0.57 0.61 0.67 0.72 0.72 0.73 0.73 0.75 0.76 0.74 0.78 0.83 0.86 0.86 0.88 0.88 0.87 0.87 0.86 0.85 0.84 0.83 0.81 0.78 0.72 0.65 0.59 0.59 0.59 0.61 0.66 0.68 0.69 0.71
0.67 0.64 0.61 0.57 0.55 0.55 0.57 0.60 0.63 0.65 0.68 0.70 0.73 0.74 0.75 0.77 0.77 0.79 0.78 0.80 0.84 0.85 0.86 0.87 0.85 0.85 0.86 0.86 0.84 0.83 0.81 0.76 0.71 0.62 0.58 0.59 0.60 0.61 0.64 0.67 0.69 0.69
Wind_Speed
9 9 10 11 10 10 10 10 9 8 8 9 9 9 9 10 10 10 11 11 11 12 12 13 13 13 13 13 14 13 13 14 14 14 14 14 14 14 14 14 14 15
9 10 10 10 10 10 10 9 9 8 8 9 9 9 9 10 10 10 10 11 11 12 12 13 13 13 13 13 13 13 13 14 14 14 14 14 14 14 15 15 15 15
9 10 10 10 10 10 9 8 8 8 8 8 9 9 9 9 9 10 10 11 11 12 12 13 13 13 14 14 13 13 14 14 14 14 14 14 15 15 15 15 15 15
9 10 10 10 10 9 8 7 7 7 8 8 8 9 9 9 9 10 10 11 11 12 12 12 13 13 13 14 14 14 14 14 14 14 14 14 15 15 15 15 15 15
9 10 10 10 9 8 7 6 6 7 7 7 8 8 9 9 9 10 10 11 11 12 12 12 12 13 13 14 14 14 14 14 13 14 14 14 15 15 15 15 15 15
10 10 10 9 8 7 6 6 6 6 6 7 8 8 9 9 9 10 10 11 11 12 12 12 12 13 13 13 14 14 14 14 13 14 14 15 15 15 15 15 15 15
10 10 9 8 8 7 6 6 5 5 6 7 8 8 8 9 9 10 10 11 11 12 12 12 12 13 13 13 13 14 14 13 13 14 14 15 15 15 14 14 15 16
9 9 8 8 8 7 6 6 5 5 6 7 7 8 8 8 9 10 10 11 11 11 12 12 12 12 13 13 13 14 14 14 13 14 14 14 15 15 14 15 15 16
8 8 8 8 7 6 6 6 5 6 6 7 7 8 8 8 9 9 10 11 11 12 12 12 12 12 13 13 13 13 14 14 14 14 14 15 15 15 15 15 16 16
8 8 8 7 7 6 6 6 6 6 7 7 7 8 8 9 9 10 10 11 11 12 12 13 13 13 13 13 13 13 14 14 14 14 14 15 15 15 15 16 16 17
8 8 8 7 7 6 6 6 6 7 7 7 8 8 9 9 9 10 10 11 12 13 13 13 13 13 13 13 13 13 13 14 14 14 14 15 15 15 15 16 17 17
8 8 8 7 7 7 7 7 7 7 8 8 8 9 9 10 10 10 11 12 12 13 14 14 14 14 14 14 14 13 13 14 14 14 14 15 15 15 15 16 17 17
8 8 8 7 7 7 7 7 7 8 8 9 9 9 10 10 10 11 11 12 13 13 14 14 14 14 14 14 14 14 14 14 14 14 14 14 15 15 16 16 17 17
8 8 7 7 7 7 7 8 8 8 8 9 9 9 10 10 11 11 12 13 13 14 14 14 14 14 14 14 14 14 14 14 14 14 14 15 15 15 16 16 17 18
8 7 7 7 7 8 8 8 8 8 9 9 9 10 10 11 11 12 12 13 13 14 14 14 14 14 13 13 13 14 14 14 14 14 15 15 15 15 16 16 17 18
8 8 8 8 8 8 8 8 8 9 9 9 10 10 11 11 11 12 12 13 13 14 14 14 14 13 13 13 13 13 14 14 14 15 15 15 15 16 16 16 17 18
8 8 8 8 8 8 8 9 9 9 9 9 9 10 10 11 11 12 12 13 13 14 14 14 13 13 13 13 13 13 14 14 15 15 15 15 16 16 16 16 17 18
8 8 8 8 8 8 9 9 9 9 9 9 9 10 10 10 11 12 12 13 13 13 13 13 12 13 13 13 13 13 14 14 15 15 16 16 16 16 16 16 17 17
8 8 8 9 9 9 9 9 9 9 9 9 10 10 10 10 11 12 12 12 13 13 13 12 12 12 13 13 13 14 14 14 15 15 16 16 16 16 16 16 16 17
9 9 9 9 9 9 9 9 9 9 9 9 10 10 10 11 11 12 12 12 12 12 12 12 12 12 13 13 14 14 14 14 15 15 16 16 16 16 16 16 16 17
9 9 9 9 9 9 9 9 9 9 9 10 10 10 11 11 12 12 12 12 12 12 12 12 12 13 13 14 14 14 14 14 15 15 16 16 16 16 16 16 16 16
9 10 9 9 9 9 9 9 9 9 10 10 10 10 11 12 12 12 11 11 11 12 12 12 13 13 14 14 14 14 14 14 15 15 16 16 16 16 16 16 16 16
10 10 10 9 9 9 9 9 9 9 9 10 10 10 11 11 11 11 10 10 11 11 12 12 13 13 14 14 14 14 14 14 15 15 15 16 16 16 16 15 16 15
10 10 10 9 9 9 9 9 9 9 9 9 10 10 11 11 10 10 10 10 10 11 12 13 13 13 14 14 14 14 14 14 14 14 15 15 16 16 15 15 16 15
10 9 9 9 9 8 9 9 9 9 9 9 10 10 10 10 9 9 9 10 10 11 12 13 13 14 14 14 14 14 14 14 14 14 14 15 15 15 15 15 15 15
10 9 9 8 8 8 8 8 8 9 9 9 9 9 9 9 9 9 9 10 10 11 12 13 13 14 14 14 14 14 13 13 13 13 14 14 15 15 15 15 15 15
Wind_Direction
306 309 312 314 315 314 315 317 318 321 325 330 333 334 334 335 335 337 340 343 347 348 348 348 348 348 348 348 348 348 348 349 349 349 348 348 347 345 343 342 340 338
307 309 312 314 313 313 315 316 317 321 326 328 329 330 331 332 333 336 338 341 344 345 346 346 346 345 346 346 345 346 346 347 348 347 347 347 346 345 345 344 343 341
306 308 311 312 311 313 314 315 319 323 325 326 327 328 328 330 334 337 339 341 342 343 345 345 345 345 345 346 345 344 345 346 346 345 346 345 345 344 345 344 344 344
306 308 311 311 310 312 313 316 321 324 325 327 328 327 327 329 333 337 339 341 342 343 344 345 345 346 346 346 345 344 343 344 344 344 345 344 343 343 343 344 344 345
305 307 309 309 309 310 312 315 321 324 328 332 333 331 330 331 333 336 338 340 341 342 343 344 345 346 347 346 345 344 343 343 343 344 344 344 342 342 342 342 342 343
302 304 305 306 307 308 308 313 319 325 334 339 338 337 336 336 337 338 339 340 340 341 342 343 344 345 345 345 345 345 344 344 344 344 344 342 341 341 341 341 341 341
298 300 301 302 303 302 304 308 313 321 331 336 337 339 340 342 343 343 343 342 341 341 343 343 343 343 343 344 345 346 346 347 346 345 345 343 342 341 341 340 340 339
296 297 297 298 298 298 299 301 304 313 321 327 332 336 340 342 344 345 346 345 344 344 344 343 342 342 342 343 345 346 347 347 347 347 346 345 345 344 343 341 340 339
295 295 294 294 294 294 294 293 296 305 313 318 324 330 335 338 341 344 345 345 345 346 345 344 342 341 341 341 342 343 344 345 347 347 346 346 346 346 344 343 341 340
294 292 290 289 288 287 288 289 292 300 307 310 315 321 326 331 336 339 340 341 342 343 343 342 341 340 339 339 339 339 341 342 344 345 345 345 345 345 345 343 341 341
292 289 286 283 281 281 284 288 292 299 303 305 309 313 317 324 330 333 334 336 338 338 338 337 337 338 338 337 336 336 337 339 341 343 344 344 344 344 344 343 342 341
289 286 283 278 275 278 284 289 294 298 300 302 305 309 313 319 323 326 328 331 333 334 334 333 333 334 336 337 336 335 336 337 339 341 342 343 343 343 343 343 342 341
287 285 281 275 274 279 286 291 295 297 298 301 304 308 312 316 319 321 324 326 328 330 331 331 331 332 334 336 336 336 336 336 337 338 340 341 341 341 342 342 342 341
288 286 280 274 276 281 286 291 295 296 297 301 304 307 310 313 316 319 321 323 325 328 329 330 330 331 333 334 335 336 336 336 336 336 337 339 339 340 341 341 341 340
288 285 279 275 276 282 286 290 293 295 298 302 306 308 309 312 315 317 319 321 324 326 328 329 329 330 331 332 334 335 336 337 337 336 336 337 338 339 340 340 340 340
286 282 279 276 276 280 283 287 290 293 297 302 305 307 309 311 314 316 318 320 323 326 328 329 329 329 328 329 332 334 336 337 337 337 337 336 336 337 338 339 340 339
286 282 280 278 278 280 281 283 287 290 294 299 302 306 311 313 313 315 316 318 321 324 327 329 329 328 327 328 330 333 335 336 336 336 337 336 336 337 337 338 339 340
288 284 281 279 278 280 280 281 284 288 293 297 300 305 311 312 312 312 314 316 319 322 325 328 328 327 327 327 329 330 332 335 335 335 335 336 336 337 337 337 339 340
293 286 281 279 278 277 277 278 281 286 291 295 298 303 307 310 310 310 312 315 318 321 324 327 327 325 326 327 327 328 330 332 334 334 334 335 336 337 337 337 339 341
295 289 281 277 278 276 275 276 279 283 289 293 297 302 305 308 309 311 314 316 318 321 324 326 326 324 324 325 325 326 328 330 332 333 333 333 335 337 337 337 338 340
295 291 283 277 277 275 273 276 279 283 288 291 297 303 305 307 309 310 313 316 318 321 323 323 324 324 323 324 324 324 326 329 331 333 333 333 334 336 338 337 338 339
293 291 284 279 276 274 273 276 280 283 288 293 299 305 306 307 309 309 311 314 317 320 322 322 323 324 323 323 323 323 325 327 330 332 333 333 334 337 337 337 338 338
292 289 285 281 277 273 272 276 280 283 289 296 302 306 307 307 308 309 311 314 317 320 321 322 323 323 323 323 323 324 325 327 329 332 333 334 335 337 337 337 337 337
290 288 285 282 278 274 274 276 280 285 291 298 303 306 307 307 308 310 310 311 315 319 321 322 322 323 322 322 323 324 325 327 329 331 333 335 335 337 337 338 337 335
288 286 284 282 280 278 277 277 281 287 293 299 303 305 307 307 309 310 310 311 315 318 321 322 322 322 322 322 324 325 325 328 330 332 334 335 336 337 337 338 338 335
285 283 281 280 281 282 281 281 284 289 294 299 302 304 305 306 308 310 311 314 317 319 321 323 323 323 323 324 325 326 327 329 331 332 333 335 337 338 338 338 338 337